Weather History for KTRL - November, 2011

Change the Weather History Date:

Friday, November 18, 2011

  Actual Average (KDFW) Record (KDFW)
Temperature  
Mean Temperature 50 °F 56 °F  
Max Temperature 64 °F 66 °F 83 °F (1973)
Min Temperature 37 °F 45 °F 20 °F (1903)
Degree Days  
Heating Degree Days 14 10  
Month to date heating degree days 132  
Since 1 July heating degree days 204  
Cooling Degree Days 0 1  
Month to date cooling degree days 26  
Year to date cooling degree days 2749  
Moisture  
Dew Point 39 °F    
Average Humidity 55    
Maximum Humidity 77    
Minimum Humidity 36    
Precipitation  
Precipitation 0.00 in 0.08 in 1.71 in (1964)
Month to date precipitation 1.80  
Year to date precipitation 32.68  
Snow  
Snow 0.00 in 0.00 in 0.00 in ()
Month to date snowfall 0.0  
Since 1 July snowfall 0.0  
Since 1 September snowfall 0.0  
Snow Depth -    
Sea Level Pressure  
Sea Level Pressure 30.09 in    
Wind  
Wind Speed 10 mph (SSE)    
Max Wind Speed 20 mph    
Max Gust Speed 25 mph    
Visibility 10 miles    
Events      
T = Trace of Precipitation, MM = Missing Value Source: NWS Daily Summary

Daily Weather History Graph

Daily Weather History Graph

Search for Another Location

Airport or City:

Trip Planner

Search our weather history database for the weather conditions in past years. The results will help you decide how hot, cold, wet, or windy it might be!

Date:

Astronomy

Nov. 18, 2011 Rise Set
Actual Time 6:57 AM CST 5:22 PM CST
Civil Twilight 6:31 AM CST 5:48 PM CST
Nautical Twilight 6:01 AM CST 6:18 PM CST
Astronomical Twilight 5:32 AM CST 6:47 PM CST
Moon No Moon Rise 12:47 PM CST (11/18)
Length of Visible Light 11h 17m
Length of Day
10h 24m
Waning Gibbous, 49% of the Moon is Illuminated
Nov 18
Waning Gibbous
Nov 25
New
Dec 2
First Quarter
Dec 10
Full
Dec 17
Last Quarter

Hourly Weather History & Observations

Time (CST) Temp. Windchill Dew Point Humidity Pressure Visibility Wind Dir Wind Speed Gust Speed Precip Events Conditions
12:53 AM 43.0 °F 41.3 °F 28.9 °F 58% 30.26 in 10.0 mi ESE 3.5 mph - N/A   Clear
1:53 AM 41.0 °F 38.0 °F 30.0 °F 65% 30.25 in 10.0 mi SE 4.6 mph - N/A   Clear
3:53 AM 37.9 °F 35.5 °F 28.9 °F 70% 30.24 in 10.0 mi ESE 3.5 mph - N/A   Clear
4:53 AM 39.0 °F 34.8 °F 28.0 °F 65% 30.23 in 10.0 mi SE 5.8 mph - N/A   Clear
6:53 AM 39.9 °F 33.4 °F 28.9 °F 65% 30.23 in 10.0 mi SE 10.4 mph - N/A   Clear
7:53 AM 43.0 °F 36.8 °F 28.9 °F 58% 30.23 in 10.0 mi SSE 11.5 mph - N/A   Clear
8:53 AM 46.9 °F - 28.9 °F 50% 30.23 in 10.0 mi SSE 16.1 mph 24.2 mph N/A   Clear
9:53 AM 51.1 °F - 28.0 °F 41% 30.21 in 10.0 mi South 16.1 mph - N/A   Clear
10:53 AM 55.9 °F - 30.0 °F 37% 30.18 in 10.0 mi SSE 11.5 mph - N/A   Clear
11:53 AM 60.1 °F - 33.1 °F 36% 30.13 in 10.0 mi South 17.3 mph - N/A   Partly Cloudy
12:53 PM 63.0 °F - 37.9 °F 40% 30.07 in 10.0 mi South 17.3 mph 25.3 mph N/A   Clear
1:53 PM 64.0 °F - 39.9 °F 41% 30.04 in 10.0 mi South 17.3 mph 24.2 mph N/A   Clear
2:53 PM 64.9 °F - 42.1 °F 43% 30.01 in 10.0 mi South 15.0 mph 23.0 mph N/A   Overcast
3:53 PM 64.0 °F - 44.1 °F 48% 30.00 in 10.0 mi South 15.0 mph - N/A   Overcast
5:53 PM 64.0 °F - 44.1 °F 48% 29.98 in 10.0 mi SSE 10.4 mph - N/A   Overcast
6:53 PM 63.0 °F - 45.0 °F 52% 29.97 in 10.0 mi SSE 10.4 mph - N/A   Overcast
7:53 PM 63.0 °F - 46.0 °F 54% 29.97 in 10.0 mi SSE 11.5 mph - N/A   Overcast
8:53 PM 62.1 °F - 48.0 °F 60% 29.96 in 10.0 mi SSE 12.7 mph - N/A   Overcast
9:53 PM 63.0 °F - 50.0 °F 63% 29.96 in 10.0 mi South 18.4 mph - N/A   Overcast
10:53 PM 62.1 °F - 51.1 °F 67% 29.96 in 10.0 mi South 19.6 mph 25.3 mph N/A   Mostly Cloudy
11:46 PM 60.8 °F - 53.6 °F 77% 29.96 in 10.0 mi South 16.1 mph - N/A   Mostly Cloudy
11:53 PM 62.1 °F - 53.1 °F 72% 29.95 in 10.0 mi South 15.0 mph - N/A   Mostly Cloudy